Regional Weather Roundup
Issued by NWS Green Bay, WI

Home | Current Version | Previous Version | Graphics & Text | Print | Product List | Glossary Off
Versions: 1 2 3 4 5 6 7 8 9 10 11 12 13 14 15 16 17 18 19 20 21 22 23 24 25 26 27 28 29 30 31 32 33 34 35 36 37 38 39 40 41 42 43 44 45 46 47 48 49 50

000
ASUS43 KGRB 240300
RWRGRB

NORTH-CENTRAL AND NORTHEAST WISCONSIN REGIONAL WEATHER ROUNDUP
NATIONAL WEATHER SERVICE GREEN BAY WI
1000 PM CDT MON APR 23 2018

WIZ005-009-010>012-018-019-240400-
NORTH CENTRAL WISCONSIN

CITY           SKY/WX    TMP DP  RH WIND       PRES   REMARKS
IRONWOOD       FAIR      41  32  70 CALM      30.12S
MANITOWISH WTR NOT AVBL
ARBOR VITAE    NOT AVBL
EAGLE RIVER    FAIR      38  27  63 CALM      30.13S
LAND O LAKES   FAIR      36  25  65 CALM      30.15S
RHINELANDER    FAIR      40  28  62 CALM      30.14S
PHILLIPS       FAIR      40  31  68 CALM      30.13S
ANTIGO         NOT AVBL
TOMAHAWK       NOT AVBL
MERRILL        NOT AVBL
$$

WIZ013-073-240400-
NORTHEAST WISCONSIN

CITY           SKY/WX    TMP DP  RH WIND       PRES   REMARKS
IRON MOUNTAIN  FAIR      50  26  39 SE5       30.12S
MARINETTE      FAIR      43  29  57 CALM      30.15S
$$

WIZ017-030-035>037-045-240400-
CENTRAL WISCONSIN

CITY           SKY/WX    TMP DP  RH WIND       PRES   REMARKS
MEDFORD        NOT AVBL
WAUSAU         FAIR      50  28  42 S3        30.12S
MOSINEE        CLEAR     50  21  32 SE3       30.15R
MARSHFIELD     FAIR      49  31  49 CALM      30.12S
WISC RAPIDS    FAIR      42  27  55 SE3       30.15R
STEVENS POINT  NOT AVBL
WAUPACA        FAIR      45  27  48 CALM      30.15S
SHAWANO        FAIR      43  33  66 CALM      30.14F
CLINTONVILLE   FAIR      44  28  53 CALM      30.14S
WAUTOMA        FAIR      42  30  62 CALM      30.15S
$$

WIZ038-039-048-051-240400-
FOX VALLEY

CITY           SKY/WX    TMP DP  RH WIND       PRES   REMARKS
NWS GREEN BAY  FAIR      48  34  58 CALM      30.15R
APPLETON       CLEAR     52  27  37 VRB5      30.13R
OSHKOSH        FAIR      49  32  52 CALM      30.14R
FOND DU LAC    FAIR      45  35  68 CALM      30.13S
$$

WIZ022-050-052-240400-
EAST CENTRAL WISCONSIN

CITY           SKY/WX    TMP DP  RH WIND       PRES   REMARKS
EPHRAIM        NOT AVBL
WASHINGTON ISL NOT AVBL
STURGEON BAY   FAIR      48  26  42 E6        30.15S
MANITOWOC      FAIR      47  29  49 N3        30.15S
SHEBOYGAN      FAIR      43  31  62 NE5       30.14R
$$

LMZ563-521-522-541>543-240400-
LAKESHORE

STATION/POSITION TIME  TEMP    WIND        PRES    VSBY  WAVE
                       AIR SEA DIR/SP/G                  HT/PER
                 (UTC) (F)     (DEG/KT/KT) (MB)    (MI)  (FT/S)
SHEBOYGAN LKSHOR 0200   45      20/ 11/ 12 1020.6F
KEWAUNEE LKSHORE 0230   44      50/  4/  7 1020.1S
NORTHPORT PIER   0240   44                 1021.0R
SISTER BAY LKSHO 0227   44        CALM       N/A
MENOMINEE LKSHOR 0230   47     170/  2/  3 1020.4S
$$




USA.gov is the U.S. government's official web portal to all federal, state and local government web resources and services.